Skip Page Navigation
NASA JPL Caltech
NASA Logo - Jet Propulsion Laboratory + View the NASA Portal
+ Center for Near-Earth Object Studies
JPL Home Earth Solar System Stars & Galaxies Technology
JPL Solar System Dynamics
BODIES ORBITS EPHEMERIDES TOOLS PHYSICAL DATA DISCOVERY FAQ SITE MAP
JPL Small-Body Database Browser
Search: [ help ]  
434102 (2002 JY100)
Classification: Inner Main-belt Asteroid          SPK-ID: 2434102
Ephemeris | Orbit Diagram | Orbital Elements | Mission Design | Physical Parameters | Discovery Circumstances ]

[ show orbit diagram ]
Orbital Elements at Epoch 2459000.5 (2020-May-31.0) TDB
Reference: JPL 10 (heliocentric ecliptic J2000)
 Element Value Uncertainty (1-sigma)   Units 
e .071964556872884 1.3088e-07  
a 1.909907335012336 1.7028e-08 au
q 1.772461699979903 2.6129e-07 au
i 27.4283668070714 8.315e-06 deg
node 80.90184201773239 1.2085e-05 deg
peri 146.5224358994805 7.1223e-05 deg
M 301.6966435618985 8.0908e-05 deg
tp 2459156.637754130643
(2020-Nov-03.13775413)
0.00021833 TDB
period 964.0884319705885
2.64
1.2893e-05
3.53e-08
d
yr
n .3734097288815748 4.9936e-09 deg/d
Q 2.047352970044769 1.8253e-08 au
  Orbit Determination Parameters
   # obs. used (total)      100  
   data-arc span      8795 days (24.08 yr)  
   first obs. used      1995-12-26  
   last obs. used      2020-01-24  
   planetary ephem.      DE431  
   SB-pert. ephem.      SB431-N16  
   condition code      0  
   norm. resid. RMS      .65099  
   source      ORB  
   producer      Otto Matic  
   solution date      2020-Feb-26 09:46:01  

Additional Information
 Earth MOID = .77394 au 
 Jupiter MOID = 3.02634 au 
 T_jup = 3.797 
[ show covariance matrix ]

Ephemeris | Orbit Diagram | Orbital Elements | Mission Design | Physical Parameters | Discovery Circumstances ]

Physical Parameter Table
Parameter Symbol Value Units Sigma Reference Notes
absolute magnitude H 17.7   n/a MPO182586  

434102 (2002 JY100)          Discovered 2002-May-15 by NEAT at Palomar
Reference: Last Updated: 2015-06-04

Alternate Designations
 2002 JY100 = 2010 JD151 
Ephemeris | Orbit Diagram | Orbital Elements | Mission Design | Physical Parameters | Discovery Circumstances ]
ABOUT SSD CREDITS/AWARDS PRIVACY/COPYRIGHT GLOSSARY LINKS
FirstGov 2020-Jul-09 15:52 UT
(server date/time)  
NASA Home Page
Site Manager:   Ryan S. Park
Webmaster  Alan B. Chamberlin